GW4851 Weather Reports


time (UTC)temp
C
wind
direction
speed
KPH
gust
KPH
rain 1hr
cm
rain 24hr
cm
rain mn
cm
humidity
%
barometer
mb
20260509201547 20 183 0.0 0.0 0.00 0.00 0.00 50 1009.5
20260509201045 20 183 0.0 0.0 0.00 0.00 0.00 49 1009.6
20260509200544 20 183 0.0 0.0 0.00 0.00 0.00 48 1009.4
20260509200042 20 187 0.0 0.0 0.00 0.00 0.00 50 1009.5
20260509195537 20 264 0.0 0.0 0.00 0.00 0.00 49 1009.4
20260509195037 20 264 0.0 3.2 0.00 0.00 0.00 49 1009.5
20260509194532 20 229 1.6 3.2 0.00 0.00 0.00 51 1009.3
20260509194030 20 247 3.2 4.8 0.00 0.00 0.00 49 1009.5
20260509193530 20 236 1.6 4.8 0.00 0.00 0.00 48 1009.6
20260509193027 20 348 1.6 3.2 0.00 0.00 0.00 47 1009.5
20260509192524 20 356 1.6 3.2 0.00 0.00 0.00 48 1009.8
20260509192019 20 161 3.2 4.8 0.00 0.00 0.00 51 1009.5
20260509191513 20 277 0.0 0.0 0.00 0.00 0.00 49 1009.7
20260509191009 20 284 3.2 6.4 0.00 0.00 0.00 50 1009.6
20260509190506 20 289 4.8 4.8 0.00 0.00 0.00 52 1009.7
20260509190005 20 296 4.8 11.3 0.00 0.00 0.00 49 1009.7
20260509185501 20 234 4.8 6.4 0.00 0.00 0.00 50 1009.7
20260509184958 20 267 6.4 6.4 0.00 0.00 0.00 51 1009.6
20260509184456 20 257 4.8 9.7 0.00 0.00 0.00 50 1009.7
20260509183952 19 167 3.2 6.4 0.00 0.00 0.00 48 1009.8
20260509183447 19 294 8.0 11.3 0.00 0.00 0.00 52 1010.1
20260509182943 19 154 6.4 12.9 0.00 0.00 0.00 51 1009.8
20260509182439 20 125 1.6 6.4 0.00 0.00 0.00 50 1010.0
20260509181937 19 17 1.6 12.9 0.00 0.00 0.00 49 1010.2
20260509181435 20 154 4.8 4.8 0.00 0.00 0.00 52 1010.0
20260509180932 19 11 1.6 3.2 0.00 0.00 0.00 51 1010.3
20260509180427 18 265 3.2 6.4 0.00 0.00 0.00 53 1010.3
20260509175924 18 135 3.2 11.3 0.00 0.00 0.00 55 1010.4
20260509175421 18 214 0.0 3.2 0.00 0.00 0.00 54 1010.4
20260509174918 18 177 0.0 1.6 0.00 0.00 0.00 54 1010.6
20260509174414 19 136 1.6 6.4 0.00 0.00 0.00 56 1010.6
20260509173910 18 130 1.6 6.4 0.00 0.00 0.00 58 1010.3
20260509173409 19 202 3.2 4.8 0.00 0.00 0.00 58 1010.8
20260509172906 18 60 1.6 1.6 0.00 0.00 0.00 57 1010.9
20260509172403 17 60 1.6 1.6 0.00 0.00 0.00 58 1010.9
20260509171859 17 60 1.6 3.2 0.00 0.00 0.00 57 1010.9
20260509171355 17 123 1.6 4.8 0.00 0.00 0.00 58 1010.9
20260509170851 17 83 1.6 3.2 0.00 0.00 0.00 60 1011.2
20260509170348 16 120 1.6 3.2 0.00 0.00 0.00 61 1011.1
20260509165848 16 122 4.8 4.8 0.00 0.00 0.00 63 1011.4
20260509165342 16 126 3.2 4.8 0.00 0.00 0.00 65 1011.4
20260509164838 16 118 4.8 6.4 0.00 0.00 0.00 65 1011.5
20260509164335 16 85 4.8 11.3 0.00 0.00 0.00 64 1011.6
20260509163831 16 99 8.0 11.3 0.00 0.00 0.00 64 1011.5
20260509163328 16 98 4.8 4.8 0.00 0.00 0.00 65 1011.6
20260509162828 15 90 4.8 6.4 0.00 0.00 0.00 65 1011.7
20260509162325 15 105 4.8 4.8 0.00 0.00 0.00 68 1011.8
20260509161822 15 107 3.2 3.2 0.00 0.00 0.00 68 1011.8
20260509161319 15 79 3.2 4.8 0.00 0.00 0.00 68 1011.9
20260509160814 16 98 6.4 9.7 0.00 0.00 0.00 68 1011.7
20260509160310 16 82 3.2 6.4 0.00 0.00 0.00 68 1011.6
20260509155806 16 103 4.8 9.7 0.00 0.00 0.00 64 1011.5
20260509155306 16 131 3.2 4.8 0.00 0.00 0.00 63 1011.5
20260509154758 16 98 0.0 1.6 0.00 0.00 0.00 66 1011.7
20260509154256 15 129 3.2 4.8 0.00 0.00 0.00 67 1011.5
20260509153753 15 114 6.4 11.3 0.00 0.00 0.00 68 1011.6
20260509153248 15 75 4.8 4.8 0.00 0.00 0.00 67 1011.9
20260509152745 15 80 1.6 3.2 0.00 0.00 0.00 67 1011.7
20260509152242 15 81 3.2 3.2 0.00 0.00 0.00 66 1011.8
20260509151739 15 117 3.2 3.2 0.00 0.00 0.00 66 1011.8
20260509151235 15 151 3.2 6.4 0.00 0.00 0.00 66 1011.8
20260509150733 16 118 3.2 9.7 0.00 0.00 0.00 63 1011.7
20260509150232 16 111 3.2 9.7 0.00 0.00 0.00 63 1011.8
20260509145729 16 99 3.2 3.2 0.00 0.00 0.00 62 1011.7
20260509145228 16 109 1.6 6.4 0.00 0.00 0.00 66 1011.8
20260509144725 16 122 6.4 9.7 0.00 0.00 0.00 64 1011.7
20260509144222 16 138 9.7 12.9 0.00 0.00 0.00 66 1011.7
20260509143719 15 90 0.0 4.8 0.00 0.00 0.00 68 1012.0
20260509143217 15 81 0.0 3.2 0.00 0.00 0.00 67 1011.6
20260509142712 15 44 3.2 4.8 0.00 0.00 0.00 69 1011.8
20260509142209 15 103 3.2 6.4 0.00 0.00 0.00 68 1011.9
20260509141704 14 125 3.2 4.8 0.00 0.00 0.00 70 1011.9
20260509141202 15 123 1.6 1.6 0.00 0.00 0.00 67 1012.2
20260509140658 15 123 0.0 1.6 0.00 0.00 0.00 66 1012.0
20260509140156 15 123 3.2 4.8 0.00 0.00 0.00 66 1012.2
20260509135653 14 100 1.6 1.6 0.00 0.00 0.00 69 1012.4
20260509135151 13 125 3.2 3.2 0.00 0.00 0.00 72 1012.3
20260509134647 13 80 3.2 4.8 0.00 0.00 0.00 69 1012.3
20260509134145 13 41 0.0 0.0 0.00 0.00 0.00 73 1012.4
20260509133642 12 4 0.0 0.0 0.00 0.00 0.00 71 1012.2
20260509133139 12 4 0.0 1.6 0.00 0.00 0.00 74 1012.0
20260509132637 12 11 1.6 3.2 0.00 0.00 0.00 72 1011.9
20260509132135 12 42 1.6 1.6 0.00 0.00 0.00 73 1012.0
20260509131631 12 344 4.8 6.4 0.00 0.00 0.00 72 1012.0
20260509131128 12 74 0.0 1.6 0.00 0.00 0.00 74 1011.9
20260509130624 12 49 0.0 3.2 0.00 0.00 0.00 74 1011.8
20260509130121 12 49 1.6 3.2 0.00 0.00 0.00 75 1011.8
20260509125617 12 48 1.6 3.2 0.00 0.00 0.00 76 1011.7
20260509125114 12 109 1.6 3.2 0.00 0.00 0.00 79 1011.9
20260509124610 12 110 0.0 1.6 0.00 0.00 0.00 75 1011.9
20260509124108 12 110 1.6 3.2 0.00 0.00 0.00 77 1012.2
20260509123606 12 26 0.0 1.6 0.00 0.00 0.00 75 1012.3
20260509123102 12 26 0.0 0.0 0.00 0.00 0.00 73 1012.2
20260509122558 12 26 0.0 0.0 0.00 0.00 0.00 69 1011.9
20260509122056 12 26 0.0 0.0 0.00 0.00 0.00 71 1012.2
20260509121552 12 26 0.0 0.0 0.00 0.00 0.00 67 1012.0
20260509121049 12 26 0.0 0.0 0.00 0.00 0.00 66 1012.3
20260509120547 12 353 0.0 1.6 0.00 0.00 0.00 68 1012.0
20260509120046 12 353 0.0 0.0 0.00 0.00 0.00 70 1011.9
20260509115542 11 353 0.0 0.0 0.00 0.00 0.00 74 1012.0
20260509115040 11 353 0.0 0.0 0.00 0.00 0.00 71 1012.0
20260509114538 12 353 0.0 0.0 0.00 0.00 0.00 68 1012.3
20260509114037 11 353 0.0 1.6 0.00 0.00 0.00 68 1012.0
20260509113534 11 352 0.0 0.0 0.00 0.00 0.00 70 1012.0
20260509113032 12 352 0.0 0.0 0.00 0.00 0.00 65 1011.8
20260509112528 12 352 0.0 0.0 0.00 0.00 0.00 67 1011.7
20260509112025 12 352 0.0 0.0 0.00 0.00 0.00 67 1011.7
20260509111522 11 352 0.0 0.0 0.00 0.00 0.00 65 1011.7
20260509111019 11 352 0.0 0.0 0.00 0.00 0.00 65 1011.7
20260509110516 11 79 0.0 0.0 0.00 0.00 0.00 71 1011.7
20260509110013 11 79 0.0 0.0 0.00 0.00 0.00 71 1011.7
20260509105512 11 79 0.0 0.0 0.00 0.00 0.00 71 1011.4
20260509105009 11 79 0.0 1.6 0.00 0.00 0.00 72 1011.6
20260509104505 11 79 0.0 0.0 0.00 0.00 0.00 66 1011.6
20260509104002 11 79 0.0 0.0 0.00 0.00 0.00 67 1011.4
20260509103500 11 259 0.0 1.6 0.00 0.00 0.00 67 1011.4
20260509102958 11 259 0.0 1.6 0.00 0.00 0.00 67 1011.3
20260509102455 11 258 1.6 1.6 0.00 0.00 0.00 66 1011.2
20260509101951 11 258 1.6 3.2 0.00 0.00 0.00 66 1011.1
20260509101448 11 258 1.6 3.2 0.00 0.00 0.00 70 1011.1
20260509100945 10 259 1.6 1.6 0.00 0.00 0.00 74 1011.1
20260509100442 11 258 1.6 1.6 0.00 0.00 0.00 75 1011.1
20260509095939 12 258 3.2 3.2 0.00 0.00 0.00 68 1011.1
20260509095436 -17 0.0 0.0 0.00 0.00 0.00 1011.0
20260509094933 -17 0.0 0.0 0.00 0.00 0.00 1011.2
20260509094429 -17 0.0 0.0 0.00 0.00 0.00 1011.3
20260509093927 -17 0.0 0.0 0.00 0.00 0.00 1011.2
20260509093424 -17 0.0 0.0 0.00 0.00 0.00 1011.2
20260509092923 12 273 1.6 1.6 0.00 0.00 0.00 65 1011.4
20260509092420 12 273 1.6 1.6 0.00 0.00 0.00 65 1011.3
20260509091919 11 280 1.6 1.6 0.00 0.00 0.00 67 1011.3
20260509091415 11 280 1.6 1.6 0.00 0.00 0.00 67 1011.2
20260509090912 11 280 1.6 1.6 0.00 0.00 0.00 67 1011.2
20260509090409 11 287 0.0 1.6 0.00 0.00 0.00 66 1011.3
20260509085907 11 286 3.2 3.2 0.00 0.00 0.00 66 1011.2
20260509085404 11 259 1.6 1.6 0.00 0.00 0.00 68 1011.3
20260509084900 11 259 0.0 1.6 0.00 0.00 0.00 69 1011.4
20260509084357 11 259 0.0 1.6 0.00 0.00 0.00 69 1011.5
20260509083855 11 259 0.0 1.6 0.00 0.00 0.00 68 1011.4
20260509083351 11 259 1.6 1.6 0.00 0.00 0.00 66 1011.4
20260509082848 -17 0.0 0.0 0.00 0.00 0.00 1011.4
20260509082345 -17 0.0 0.0 0.00 0.00 0.00 1011.4
20260509081842 11 259 0.0 0.0 0.00 0.00 0.00 66 1011.5
20260509081339 11 259 0.0 0.0 0.00 0.00 0.00 66 1011.4
20260509080837 11 259 0.0 0.0 0.00 0.00 0.00 64 1011.5
20260509080335 -17 0.0 0.0 0.00 0.00 0.00 1011.5
20260509075833 -17 0.0 0.0 0.00 0.00 0.00 1011.8
20260509075330 -17 0.0 0.0 0.00 0.00 0.00 1011.6
20260509074827 -17 0.0 0.0 0.00 0.00 0.00 1011.7
20260509074324 -17 0.0 0.0 0.00 0.00 0.00 1011.7
20260509073820 -17 0.0 0.0 0.00 0.00 0.00 1011.8
20260509073317 -17 0.0 0.0 0.00 0.00 0.00 1012.0
20260509072814 -17 0.0 0.0 0.00 0.00 0.00 1011.8
20260509072310 -17 0.0 0.0 0.00 0.00 0.00 1011.8
20260509071807 -17 0.0 0.0 0.00 0.00 0.00 1011.8
20260509071304 -17 0.0 0.0 0.00 0.00 0.00 1011.7
20260509070801 -17 0.0 0.0 0.00 0.00 0.00 1011.7
20260509070257 11 273 3.2 4.8 0.00 0.00 0.00 67 1011.7
20260509065754 11 273 3.2 4.8 0.00 0.00 0.00 67 1011.9
20260509065250 -17 0.0 0.0 0.00 0.00 0.00 1011.8
20260509064746 -17 0.0 0.0 0.00 0.00 0.00 1011.8
20260509064244 -17 0.0 0.0 0.00 0.00 0.00 1011.9
20260509063741 -17 0.0 0.0 0.00 0.00 0.00 1012.2
20260509063237 11 251 3.2 3.2 0.00 0.00 0.00 66 1012.2
20260509062735 11 251 3.2 3.2 0.00 0.00 0.00 66 1011.9
20260509062232 11 251 1.6 1.6 0.00 0.00 0.00 66 1012.3
20260509061729 11 251 1.6 1.6 0.00 0.00 0.00 66 1012.2
20260509061227 11 251 1.6 3.2 0.00 0.00 0.00 63 1012.3
20260509060724 -17 0.0 0.0 0.00 0.00 0.00 1012.3
20260509060220 -17 0.0 0.0 0.00 0.00 0.00 1012.2
20260509055716 -17 0.0 0.0 0.00 0.00 0.00 1012.3
20260509055212 -17 0.0 0.0 0.00 0.00 0.00 1012.3
20260509054709 12 251 3.2 3.2 0.00 0.00 0.00 64 1012.5
20260509054206 12 251 3.2 3.2 0.00 0.00 0.00 64 1012.6
20260509053704 12 257 3.2 3.2 0.00 0.00 0.00 63 1012.3
20260509053201 -17 0.0 0.0 0.00 0.00 0.00 1012.2
20260509052659 -17 0.0 0.0 0.00 0.00 0.00 1012.4
20260509052156 11 271 0.0 1.6 0.00 0.00 0.00 66 1012.4
20260509051654 11 271 0.0 1.6 0.00 0.00 0.00 66 1012.5
20260509051151 12 271 3.2 3.2 0.00 0.00 0.00 63 1012.5
20260509050648 11 309 1.6 3.2 0.00 0.00 0.00 66 1012.5
20260509050144 11 309 1.6 3.2 0.00 0.00 0.00 66 1012.5
20260509045642 11 268 3.2 3.2 0.00 0.00 0.00 66 1012.4
20260509045138 11 232 4.8 6.4 0.00 0.00 0.00 64 1012.4
20260509044636 11 259 3.2 3.2 0.00 0.00 0.00 67 1012.5
20260509044133 11 259 3.2 3.2 0.00 0.00 0.00 67 1012.3
20260509043629 11 261 1.6 1.6 0.00 0.00 0.00 68 1012.2
20260509043125 11 261 1.6 3.2 0.00 0.00 0.00 67 1012.6
20260509042622 -17 0.0 0.0 0.00 0.00 0.00 1012.3
20260509042118 11 266 4.8 4.8 0.00 0.00 0.00 67 1012.3
20260509041615 11 266 4.8 4.8 0.00 0.00 0.00 67 1012.5
20260509041112 11 274 3.2 4.8 0.00 0.00 0.00 68 1012.4
20260509040611 11 274 3.2 4.8 0.00 0.00 0.00 68 1012.5
20260509040107 11 246 1.6 3.2 0.00 0.00 0.00 68 1012.5
20260509035604 11 245 1.6 3.2 0.00 0.00 0.00 68 1012.4
20260509035100 11 248 0.0 1.6 0.00 0.00 0.00 67 1012.4
20260509034559 12 278 6.4 6.4 0.00 0.00 0.00 60 1012.6
20260509034055 12 278 6.4 6.4 0.00 0.00 0.00 60 1012.5
20260509033552 12 319 3.2 4.8 0.00 0.00 0.00 62 1012.4
20260509033049 11 324 1.6 1.6 0.00 0.00 0.00 67 1012.4
20260509032547 11 324 1.6 1.6 0.00 0.00 0.00 67 1012.4
20260509032043 12 240 1.6 3.2 0.00 0.00 0.00 64 1012.5
20260509031541 12 301 1.6 3.2 0.00 0.00 0.00 65 1012.7
20260509031038 12 300 1.6 1.6 0.00 0.00 0.00 65 1012.5
20260509030537 11 260 1.6 3.2 0.00 0.00 0.00 64 1012.6
20260509030033 11 297 0.0 1.6 0.00 0.00 0.00 70 1012.7
20260509025529 11 170 1.6 3.2 0.00 0.00 0.00 69 1012.6
20260509025025 12 170 0.0 1.6 0.00 0.00 0.00 66 1012.5
20260509024521 12 170 0.0 0.0 0.00 0.00 0.00 61 1012.7
20260509024017 12 170 3.2 3.2 0.00 0.00 0.00 66 1012.8
20260509023515 11 170 1.6 3.2 0.00 0.00 0.00 70 1012.7
20260509023012 11 170 1.6 1.6 0.00 0.00 0.00 70 1012.8
20260509022508 13 170 3.2 3.2 0.00 0.00 0.00 61 1012.8
20260509022006 12 320 1.6 1.6 0.00 0.00 0.00 60 1012.9
20260509021503 12 300 1.6 1.6 0.00 0.00 0.00 58 1012.9
20260509020959 12 296 1.6 3.2 0.00 0.00 0.00 59 1012.8
20260509020458 12 259 0.0 0.0 0.00 0.00 0.00 60 1012.9
20260509015954 12 259 0.0 1.6 0.00 0.00 0.00 61 1012.4
20260509015453 12 259 0.0 1.6 0.00 0.00 0.00 59 1012.7
20260509014950 13 259 0.0 1.6 0.00 0.00 0.00 57 1012.6
20260509014447 13 259 1.6 3.2 0.00 0.00 0.00 55 1012.7
20260509013943 13 291 3.2 4.8 0.00 0.00 0.00 55 1012.8
20260509013440 13 267 1.6 1.6 0.00 0.00 0.00 55 1012.6
20260509012936 13 267 3.2 3.2 0.00 0.00 0.00 56 1012.5
20260509012432 13 267 1.6 1.6 0.00 0.00 0.00 57 1012.5
20260509011929 13 289 1.6 1.6 0.00 0.00 0.00 56 1012.5
20260509011427 13 31 0.0 1.6 0.00 0.00 0.00 57 1012.4
20260509010925 13 5 6.4 6.4 0.00 0.00 0.00 56 1012.4
20260509010422 13 343 4.8 6.4 0.00 0.00 0.00 57 1012.3
20260509005918 13 344 3.2 3.2 0.00 0.00 0.00 54 1012.4
20260509005417 13 343 0.0 0.0 0.00 0.00 0.00 55 1012.4
20260509004917 14 343 0.0 0.0 0.00 0.00 0.00 54 1012.5
20260509004413 14 343 0.0 0.0 0.00 0.00 0.00 52 1012.3
20260509003911 14 343 0.0 0.0 0.00 0.00 0.00 52 1012.3
20260509003409 14 343 0.0 1.6 0.00 0.00 0.00 53 1012.4
20260509002905 14 344 4.8 4.8 0.00 0.00 0.00 53 1012.4
20260509002403 15 335 0.0 1.6 0.00 0.00 0.00 52 1012.5
20260509001901 15 21 3.2 3.2 0.00 0.00 0.00 50 1012.5
20260509001356 -17 0.0 0.0 0.00 0.00 0.00 1012.3
20260509000854 -17 0.0 0.0 0.00 0.00 0.00 1012.2
20260509000352 -17 0.0 0.0 0.00 0.00 0.00 1012.2
20260508235848 17 19 3.2 3.2 0.00 0.00 0.00 44 1012.0
20260508235345 17 19 3.2 3.2 0.00 0.00 0.00 44 1011.8
20260508234842 17 19 3.2 3.2 0.00 0.00 0.00 43 1012.0
20260508234338 18 19 0.0 0.0 0.00 0.00 0.00 38 1011.8
20260508233837 18 19 0.0 0.0 0.00 0.00 0.00 38 1011.9
20260508233336 19 19 0.0 0.0 0.00 0.00 0.00 36 1011.8
20260508232832 19 19 0.0 0.0 0.00 0.00 0.00 36 1011.6
20260508232329 19 19 0.0 1.6 0.00 0.00 0.00 35 1011.7
20260508231827 20 19 3.2 3.2 0.00 0.00 0.00 34 1011.5
20260508231323 20 277 1.6 1.6 0.00 0.00 0.00 35 1011.6
20260508230820 19 277 3.2 4.8 0.00 0.00 0.00 34 1011.6
20260508230316 19 283 6.4 9.7 0.00 0.00 0.00 33 1011.6
20260508225814 20 322 6.4 6.4 0.00 0.00 0.00 34 1011.7
20260508225310 20 320 12.9 20.9 0.00 0.00 0.00 32 1011.5
20260508224808 20 282 9.7 12.9 0.00 0.00 0.00 33 1011.8
20260508224306 20 257 6.4 9.7 0.00 0.00 0.00 34 1011.7
20260508223803 20 281 6.4 6.4 0.00 0.00 0.00 34 1011.7
20260508223300 20 281 1.6 1.6 0.00 0.00 0.00 35 1011.9
20260508222758 20 320 9.7 11.3 0.00 0.00 0.00 33 1011.7
20260508222255 20 352 9.7 14.5 0.00 0.00 0.00 32 1011.7
20260508221751 20 274 3.2 4.8 0.00 0.00 0.00 35 1011.8
20260508221247 19 311 9.7 11.3 0.00 0.00 0.00 34 1011.7
20260508220743 19 309 3.2 6.4 0.00 0.00 0.00 35 1011.8
20260508220240 19 313 4.8 6.4 0.00 0.00 0.00 35 1011.9
20260508215736 19 338 9.7 11.3 0.00 0.00 0.00 34 1011.7
20260508215233 20 264 4.8 6.4 0.00 0.00 0.00 33 1011.9
20260508214730 20 326 8.0 11.3 0.00 0.00 0.00 34 1011.7
20260508214228 20 326 8.0 11.3 0.00 0.00 0.00 34 1012.0
20260508213724 20 36 4.8 6.4 0.00 0.00 0.00 33 1011.8
20260508213220 20 320 6.4 9.7 0.00 0.00 0.00 33 1012.2
20260508212717 20 285 6.4 9.7 0.00 0.00 0.00 34 1012.0
20260508212214 18 319 8.0 11.3 0.00 0.00 0.00 34 1012.2
20260508211709 20 264 14.5 16.1 0.00 0.00 0.00 32 1011.8
20260508211205 20 313 14.5 16.1 0.00 0.00 0.00 32 1012.2
20260508210703 20 211 6.4 6.4 0.00 0.00 0.00 35 1012.3
20260508210200 20 247 11.3 12.9 0.00 0.00 0.00 31 1012.3
20260508205656 20 324 4.8 11.3 0.00 0.00 0.00 34 1012.4
20260508205153 20 278 16.1 20.9 0.00 0.00 0.00 32 1012.5
20260508204649 21 320 12.9 14.5 0.00 0.00 0.00 33 1012.4
20260508204145 20 225 4.8 11.3 0.00 0.00 0.00 33 1012.3
20260508203642 21 66 3.2 3.2 0.00 0.00 0.00 32 1012.5
20260508203138 19 293 4.8 12.9 0.00 0.00 0.00 34 1012.7
20260508202634 19 228 6.4 9.7 0.00 0.00 0.00 35 1012.7
20260508202131 19 354 3.2 9.7 0.00 0.00 0.00 34 1012.6